map of YBB home
YBB - Airport
Location
City:  Kugaaruk, Kitikmeot, Nunavut, Canada
Near (Alt.):Pelly Bay
ICAO:CYBB
IATA:YBB

Details
Type:Airport (Airfield)
Latitude:6832'04"N (68.534444)
Longitude:8948'29"W (-89.808055)
Datum:WGS 1984
Elevation:56 ft (17 m)
Variation:17.25W (WMM2015 magnetic declination)
0.39 annual change
Runways:1
Longest:5000 × 100 ft (1524 × 30.5 m)

Time
Time Zone:UTC-6 (DST-5)
Local Time:

Weather
METAR:CYBB 281300Z 10015G23KT 10SM -SN BKN012 BKN100 M02/M04 A2994 RMK SC6AC1 SLP142
TAF:CYBB 271838Z 2719/2723 26015G25KT P6SM BKN015
TEMPO 2719/2723 3SM -SN BKN008
RMK NXT FCST WILL BE ISSUED AT 281345Z

Related Locations
Nearby:
Farthest:YWKS: 11859 mi / 19085 km
Wilkins Runway (Casey), Upper Peterson Glacier, AQ

Find:

   beyond  
but within

Other Information
Maps:
NOTAMs:
Links:
Sources:

  
flag of Canada
flag of Nunavut
  

Airport Diagram

Airport diagram for YBB

Airport diagram PDF

Sectional Chart

Flight Planning
at skyvector.com

Satellite Image

Google Maps Satellite view

 

Copyright © 2004-2016 Karl L. Swartz. All rights reserved.
The Great Circle Mapper name and logo are trademarks of the Great Circle Mapper.
All other trademarks mentioned herein belong to their respective owners.
Please see credits for attibutions and further copyright information.

  Follow gcmap on Facebook Follow gcmap on Twitter Follow gcmap on Google+ GCmap on LinkedIn

hCard Microformat

Geo Microformat